Theta_e
332 333 332 329 325 325 320 319 300 311 306 297 295 297 298 304 303 303 302 304 301 306 306 307 306 307 304 303 303 304 305 302 306 296 299 318 330 332 336 334 339 338 342 342 344 346 347 348 351 351 353 352 351 351 350 350 349 349 349 348 349 348 348 348 348 348 349 349 348 348 349 348 348 348 347 347 347 346 346 346 347 347 347 347 347 348 347 347 347 347 345 345 343 342 341 340 339
332 330 326 327 324 324 315 314 303 299 302 297 296 298 299 302 303 301 300 302 304 306 307 305 306 306 307 306 304 305 305 306 309 307 315 328 330 328 337 335 336 335 342 342 345 346 347 347 349 351 353 352 352 351 350 349 349 349 348 348 348 348 348 348 348 349 349 349 348 349 348 348 348 348 347 347 346 346 345 345 345 345 346 346 347 347 347 346 346 346 345 343 341 340 339 338 337
327 328 324 325 321 318 313 312 300 296 295 292 294 297 302 300 300 301 303 304 305 307 306 306 307 307 306 305 303 304 300 310 309 311 313 327 323 326 336 335 335 337 343 344 343 345 347 347 347 351 353 352 351 351 350 349 349 349 348 348 348 348 348 349 348 348 348 348 348 348 348 349 348 348 347 346 345 345 345 345 345 345 346 346 346 346 346 345 345 343 342 341 339 338 337 337 335
327 330 324 323 313 319 309 306 304 298 294 294 293 300 300 300 301 303 305 305 306 306 307 306 305 308 306 302 305 306 305 306 309 311 311 321 321 330 335 333 334 336 341 345 342 345 347 346 346 351 352 352 351 351 351 350 349 348 349 349 348 348 348 348 348 347 348 348 348 349 348 348 347 347 347 346 345 345 345 345 345 345 346 346 345 345 344 343 342 342 341 340 338 337 335 335 334
327 330 325 320 317 310 310 304 299 297 293 296 293 299 299 301 302 303 304 306 305 306 308 307 305 309 312 306 307 303 303 310 309 313 313 327 331 332 333 336 334 334 340 344 342 344 345 344 345 348 352 352 351 351 350 350 349 349 348 349 348 348 347 347 347 348 348 348 348 349 348 347 347 347 346 346 345 344 344 344 346 346 345 345 344 343 343 342 341 340 339 338 337 335 333 332 331
327 324 328 324 312 315 310 298 298 294 299 300 296 297 300 301 302 303 304 307 307 305 307 305 304 304 306 307 308 303 309 304 311 315 321 326 329 332 334 334 327 334 338 341 342 344 344 343 345 347 352 352 351 351 350 350 350 349 349 349 348 347 347 347 348 348 348 348 348 348 348 348 348 347 346 345 344 344 344 344 342 341 342 343 343 342 340 339 338 338 337 337 335 333 331 330 328
325 321 319 319 317 312 301 296 295 296 300 303 299 299 301 301 303 304 304 304 307 306 307 306 306 305 302 307 309 309 312 315 311 325 330 328 331 332 334 330 326 330 338 339 342 342 345 342 346 350 350 350 351 350 351 350 349 349 349 348 348 348 348 347 347 348 348 348 348 348 347 348 347 346 345 343 342 342 342 342 340 340 340 341 340 339 339 337 336 336 336 335 334 332 329 328 326
325 321 318 308 306 303 299 298 297 300 300 302 302 302 302 303 304 304 303 304 304 304 304 307 307 304 303 308 302 312 312 316 325 327 327 328 333 335 335 328 326 325 337 337 341 342 341 341 346 348 349 351 350 350 351 350 350 349 349 348 348 348 348 348 348 348 348 348 348 348 348 348 346 345 344 342 341 341 340 340 339 339 338 339 338 337 336 335 334 334 333 333 332 330 327 326 324
321 316 318 309 302 306 299 298 297 301 302 302 302 311 309 305 305 304 303 305 305 307 306 306 305 302 303 304 303 312 312 319 319 321 323 326 331 333 334 331 328 328 335 335 341 343 341 341 344 348 348 350 350 351 351 350 350 350 349 349 348 348 348 348 348 348 349 349 348 348 347 347 346 345 343 342 341 340 339 339 339 338 338 338 337 335 333 333 333 332 332 331 329 327 326 324 324
317 314 306 307 305 296 297 297 298 300 301 303 302 303 304 305 304 306 304 303 304 305 306 306 306 302 304 302 304 309 311 316 319 321 320 322 329 332 331 335 334 333 334 335 342 344 341 339 341 343 345 348 349 350 351 350 350 350 349 349 348 348 348 348 348 348 349 349 348 347 347 347 346 344 342 341 340 339 338 338 337 337 337 338 338 335 333 331 331 332 331 330 328 325 324 323 322
310 314 315 303 300 296 298 295 296 299 299 302 302 305 305 305 305 304 304 304 306 305 305 305 303 302 304 303 304 318 315 314 314 317 318 323 328 327 328 334 335 336 333 336 338 344 341 340 337 340 343 344 347 349 349 350 350 350 350 349 349 348 348 348 348 348 349 348 348 347 347 346 345 344 343 341 340 338 337 337 336 335 335 336 336 335 331 331 330 330 331 329 327 325 323 322 321
309 306 309 300 296 296 295 294 297 298 301 301 300 304 304 306 305 303 303 301 302 302 303 305 303 305 301 302 307 313 314 315 320 320 321 324 322 328 329 331 336 337 337 337 338 341 341 341 338 337 338 339 343 346 347 347 348 349 349 349 349 349 348 348 348 349 349 349 348 347 347 346 345 344 343 342 339 338 337 336 335 333 334 334 333 333 331 330 329 330 329 328 326 324 324 322 320
310 309 303 299 297 298 298 295 297 297 298 299 301 304 304 305 302 303 302 301 301 301 303 306 306 305 300 302 307 311 313 316 319 320 321 320 322 327 331 331 334 336 337 336 336 337 341 341 340 339 338 334 336 338 341 343 344 347 347 348 347 348 347 348 348 349 348 348 348 347 347 345 344 344 344 342 340 337 336 335 334 333 333 332 331 330 330 329 329 329 329 326 325 323 323 321 319
312 311 306 299 300 297 297 296 297 296 296 300 302 304 305 302 304 304 301 300 301 301 306 308 306 304 301 303 304 307 313 317 314 317 317 322 326 328 329 329 332 332 335 337 335 336 338 340 341 340 340 338 340 335 334 339 341 344 345 345 345 345 346 347 347 347 347 346 346 345 343 342 343 343 342 341 337 336 336 335 333 332 332 331 330 329 329 329 328 328 328 325 325 323 322 321 318
309 312 304 302 297 297 298 295 297 296 294 300 302 303 303 306 304 304 302 300 301 306 308 309 309 304 297 301 302 310 310 316 317 317 323 324 327 327 328 330 333 331 332 336 336 335 336 339 339 340 340 340 341 340 340 338 335 339 342 342 342 343 344 344 345 345 343 344 343 341 338 336 335 336 337 337 336 335 333 333 333 331 330 330 330 329 329 328 328 328 326 325 324 322 321 319 316
315 309 306 300 295 296 298 300 300 298 296 300 303 303 303 304 305 304 304 305 304 307 308 303 307 302 303 302 304 310 314 316 318 319 319 321 324 325 328 328 328 329 329 332 333 334 335 336 336 337 340 340 341 341 341 341 333 332 337 338 339 341 341 342 342 340 337 336 336 334 330 329 327 330 328 330 330 333 330 326 331 332 330 330 330 329 329 328 328 327 326 325 323 321 319 317 314
312 312 300 298 294 296 298 298 300 294 299 302 302 303 301 301 305 306 306 306 302 303 304 305 304 307 304 305 307 314 314 317 317 318 318 320 320 319 321 321 322 325 330 330 331 333 333 335 336 336 337 339 340 340 340 341 339 330 332 332 334 336 338 338 339 334 328 327 328 324 322 329 329 328 326 326 323 325 322 324 329 332 330 330 331 329 329 328 328 327 326 325 322 321 317 314 312
312 302 298 295 296 296 300 300 301 301 298 299 302 303 301 299 303 305 304 303 302 303 303 305 307 307 308 309 309 312 315 315 316 316 317 316 317 315 316 319 320 321 324 327 330 331 332 333 335 335 335 336 337 338 339 340 340 333 338 338 335 335 332 331 333 336 329 333 324 323 327 328 327 325 325 324 324 322 321 321 325 330 330 331 331 329 329 328 327 326 326 324 322 319 315 306 307
306 301 299 294 299 300 304 302 302 300 299 301 302 302 301 301 302 304 300 300 301 300 302 303 303 305 307 308 309 308 313 313 313 314 312 314 315 315 315 317 319 320 322 325 327 330 331 332 334 334 335 335 335 336 337 337 338 336 338 339 338 331 333 332 335 334 333 332 328 326 326 326 326 325 324 324 324 320 321 320 324 327 329 329 330 330 328 327 327 326 326 324 320 316 308 301 299
305 301 295 297 303 303 305 304 304 305 303 302 301 302 301 302 302 305 300 299 301 299 300 300 301 302 304 304 308 308 309 312 312 312 310 309 309 313 313 316 319 319 322 325 326 330 330 331 333 333 334 335 334 334 335 334 335 337 338 339 338 337 336 334 335 334 333 332 328 327 326 326 326 325 323 320 322 321 319 319 323 324 326 325 325 325 327 327 326 325 324 322 317 310 306 304 300
305 300 297 300 301 300 302 304 305 304 303 302 302 301 301 302 302 303 301 299 299 301 303 302 302 302 304 305 305 305 305 306 309 310 310 309 309 309 308 310 313 321 321 325 326 328 329 331 332 333 333 334 334 333 333 333 332 337 337 338 337 337 336 335 335 334 333 332 328 327 326 326 327 326 323 322 322 321 318 318 320 320 320 319 320 317 319 319 320 316 315 312 305 304 303 303 303
306 300 303 303 303 300 303 303 303 304 304 303 302 300 300 304 303 301 301 297 297 300 303 304 305 305 305 305 306 305 305 305 304 306 308 308 308 308 308 307 310 310 321 322 325 327 328 330 331 333 333 333 333 333 333 332 332 331 335 336 335 335 335 335 334 334 333 332 330 327 326 326 327 324 322 322 321 321 319 318 318 319 319 318 319 317 315 316 314 311 309 306 302 301 301 300 300
298 301 303 304 304 301 304 304 304 302 303 301 301 302 303 301 301 302 302 301 303 306 306 306 307 307 308 307 306 305 304 304 304 305 305 305 306 307 308 307 307 309 316 320 324 326 328 329 330 331 332 332 333 333 333 332 331 331 331 334 333 332 333 333 333 333 333 331 330 327 326 325 325 323 321 321 320 320 319 318 317 317 318 318 317 316 315 315 312 309 305 304 300 300 300 301 301
302 299 301 302 303 301 303 302 302 302 302 302 303 303 301 300 297 302 301 303 305 306 306 306 307 307 308 307 306 305 305 305 304 305 305 305 306 306 308 308 307 306 311 319 321 324 325 328 329 330 330 331 332 333 333 332 331 330 330 328 329 329 329 329 330 330 331 330 328 328 325 325 324 322 321 320 319 319 318 317 317 316 318 317 317 316 314 312 311 306 302 300 300 300 300 300 300
300 300 302 302 302 302 303 302 302 302 302 303 302 300 300 301 300 301 301 303 305 305 306 306 306 306 306 305 304 304 305 305 305 305 306 305 307 308 312 311 309 309 309 314 320 321 323 327 328 329 330 330 331 333 332 331 331 330 329 328 328 326 329 328 328 329 328 328 328 327 325 324 323 322 321 320 319 317 316 316 316 316 316 316 317 314 313 311 309 302 299 299 300 300 299 298 298
300 300 301 301 301 303 302 301 301 301 302 302 300 300 301 302 302 300 302 303 305 305 305 305 305 304 304 304 303 303 303 304 305 304 305 306 309 306 308 309 308 307 309 311 316 320 321 325 326 328 329 330 330 331 331 330 330 329 329 329 328 326 328 329 328 327 328 327 326 327 326 325 323 322 320 319 319 316 315 316 316 315 316 316 315 314 311 309 303 298 299 300 299 298 298 298 297
302 300 300 300 300 300 301 300 301 301 301 300 299 299 300 301 301 295 302 304 304 303 303 303 303 303 303 303 303 303 303 303 304 305 305 309 309 307 307 309 308 308 308 309 311 316 319 322 324 326 327 326 329 330 330 330 329 329 329 329 328 327 328 328 327 327 327 326 326 327 325 324 323 322 320 320 318 316 315 315 315 315 315 315 314 312 309 305 300 299 300 298 298 297 297 296 296
301 300 299 299 300 300 301 300 300 301 299 301 300 298 300 300 300 297 301 303 303 302 303 303 302 302 303 303 304 304 304 304 303 305 308 307 304 305 305 307 308 308 309 309 310 312 318 319 322 324 325 326 327 328 328 328 328 328 328 328 328 328 327 327 326 326 323 325 325 327 326 324 323 323 321 320 318 315 314 314 314 314 314 312 312 308 306 303 299 299 298 297 297 296 296 296 296
299 298 294 296 298 297 300 299 300 300 299 300 301 296 295 296 294 300 302 304 303 302 302 302 301 302 302 302 303 303 301 301 303 303 306 304 304 305 304 307 309 308 309 311 312 312 313 316 318 321 323 324 325 326 326 327 326 327 326 326 327 328 327 326 326 326 325 325 324 325 325 324 322 322 320 319 316 315 313 313 312 312 312 311 309 305 303 300 299 298 299 299 297 296 296 295 297
300 298 295 294 295 295 300 302 301 299 299 299 298 287 291 297 300 302 304 302 302 301 301 302 302 302 303 303 302 302 302 302 301 303 303 306 305 304 305 306 305 306 306 308 312 312 313 318 320 321 321 322 323 324 324 324 325 324 324 324 325 326 326 325 325 325 325 324 323 323 324 324 323 322 320 317 316 314 313 312 311 310 309 307 307 304 301 298 297 298 298 297 299 296 295 295 293
294 297 296 291 290 290 300 301 297 297 298 299 298 288 290 296 300 302 302 303 302 300 300 301 302 302 302 301 301 301 302 304 304 305 305 305 305 305 305 306 306 306 305 305 307 312 312 314 319 318 319 319 320 321 321 322 322 323 322 322 323 323 325 324 324 325 324 324 323 321 323 322 322 321 319 317 314 313 312 311 310 308 309 306 304 301 300 298 298 298 296 296 295 294 295 295 294
296 291 288 293 289 292 299 302 297 295 296 298 296 289 290 295 299 301 301 301 301 299 300 300 301 301 302 301 300 299 301 303 305 304 305 305 305 305 305 305 306 306 305 304 305 310 310 311 316 316 318 319 319 320 319 320 322 321 321 320 321 321 321 321 321 322 323 322 321 320 321 321 321 321 318 316 314 312 311 310 309 308 307 305 303 301 300 298 297 298 296 295 293 293 294 293 293
295 292 290 290 292 293 296 301 298 299 296 296 295 289 293 293 297 300 301 301 300 299 299 300 301 301 301 300 300 300 301 301 302 302 302 303 303 303 304 304 304 304 304 304 304 305 307 309 313 315 316 317 319 320 320 320 320 320 320 320 322 321 321 320 321 320 320 319 318 317 319 319 319 319 317 315 313 311 309 308 308 307 306 304 301 300 298 297 297 297 295 295 293 291 292 291 292
291 295 291 295 292 293 291 299 301 298 296 292 295 291 291 294 297 299 301 301 300 299 299 300 300 299 299 299 300 300 300 300 299 300 300 301 301 302 303 303 303 302 303 303 304 304 305 307 310 313 313 314 316 318 319 318 319 319 318 318 318 319 320 320 320 319 319 318 318 316 317 318 317 317 316 313 312 311 308 307 306 306 304 302 301 300 299 297 296 296 294 294 293 293 291 291 292
291 291 291 292 293 293 293 293 298 299 296 294 293 293 294 295 297 298 300 301 300 299 299 299 299 299 299 300 301 299 299 298 299 299 300 299 300 301 301 301 301 302 302 302 303 304 304 305 307 311 311 311 313 315 317 317 318 318 318 317 316 317 317 319 318 317 317 317 316 315 317 317 315 316 314 312 311 309 307 305 305 304 303 301 300 298 298 296 296 295 293 293 294 293 292 292 292
294 294 292 292 290 291 292 297 300 298 294 292 292 291 293 294 296 298 299 300 299 299 300 299 299 299 299 300 299 299 298 298 299 299 299 299 299 299 299 300 300 300 301 301 302 302 302 303 304 307 308 308 310 312 315 314 316 313 312 313 313 314 313 314 315 315 315 314 314 314 314 314 313 314 312 311 310 309 306 304 303 302 301 300 299 297 296 295 295 294 293 293 292 293 293 293 293
296 295 294 292 292 293 296 297 299 296 293 292 292 292 293 294 295 297 299 299 298 298 298 298 298 299 298 298 298 297 297 297 299 298 298 298 298 298 298 298 298 299 299 300 300 301 301 302 302 303 306 307 307 309 311 311 310 310 310 311 311 312 312 313 313 313 313 313 313 313 312 313 314 314 312 310 310 307 307 303 302 301 300 299 298 297 296 295 295 295 294 293 292 292 291 292 293
295 294 292 291 293 291 296 296 298 295 293 290 293 292 292 294 296 297 299 298 297 297 297 297 298 298 298 297 297 296 297 297 297 296 297 297 297 297 297 297 297 296 297 298 299 300 300 301 302 303 304 305 306 306 309 310 310 311 310 311 311 311 309 309 310 311 311 312 310 310 309 309 311 311 310 309 309 308 305 303 301 300 299 298 298 297 296 295 295 295 294 292 292 291 291 293 293
295 292 291 290 291 294 297 297 297 295 294 289 292 291 292 294 296 298 298 298 298 298 299 298 297 296 296 296 295 295 295 294 295 295 295 295 295 296 296 296 296 296 296 297 297 298 299 300 301 302 302 303 303 304 304 307 309 310 309 308 308 308 309 309 309 308 309 309 308 307 307 307 306 306 306 306 308 308 306 303 301 300 298 298 297 296 295 294 295 294 293 293 291 290 290 293 293
292 291 288 287 293 291 288 294 294 296 293 290 291 290 291 294 296 297 299 298 299 299 299 298 297 295 295 295 295 294 293 293 293 293 293 294 294 294 294 295 295 296 296 296 296 296 298 298 299 300 300 301 302 302 302 305 307 308 307 307 306 304 303 305 306 305 305 306 305 305 305 306 305 304 305 304 305 306 306 304 302 299 298 297 297 296 295 294 294 294 294 292 292 290 290 292 293
294 293 291 291 292 292 292 290 293 294 295 295 292 289 289 293 294 294 298 299 298 297 297 297 296 297 296 296 295 294 293 292 292 292 292 292 292 292 293 294 295 295 295 295 295 295 297 297 298 298 299 299 300 301 302 302 304 304 305 304 303 303 303 302 302 301 302 302 302 303 303 305 305 303 303 303 303 304 303 304 302 299 299 297 297 296 295 295 295 295 295 292 291 291 290 290 291
291 295 295 294 294 293 292 293 291 287 287 292 292 282 284 291 293 295 297 297 295 295 294 294 295 295 295 293 293 294 294 293 292 291 291 292 292 292 292 292 293 294 294 295 295 295 295 296 297 297 298 299 299 300 300 301 301 301 300 298 297 298 298 299 299 300 300 300 300 302 303 303 303 303 302 302 301 301 301 302 301 300 299 298 297 296 295 294 294 294 294 294 292 291 291 290 290
289 290 294 294 293 292 292 291 290 282 281 289 292 283 281 289 291 294 296 297 293 293 293 293 294 294 293 293 293 292 292 292 292 292 292 291 291 291 291 291 292 292 293 294 295 295 295 295 295 296 296 297 299 299 300 299 299 299 300 299 298 298 297 299 299 299 299 299 300 301 301 302 302 301 301 301 300 300 300 300 300 299 298 298 297 296 295 294 295 295 294 294 293 292 290 289 290
287 293 295 295 294 292 292 292 289 285 290 292 292 289 282 282 289 295 296 295 292 291 292 292 293 292 292 292 292 291 291 291 291 290 291 291 291 290 290 291 292 292 293 293 294 294 294 294 294 295 295 296 296 297 298 299 298 298 298 298 298 297 297 297 298 298 298 297 297 299 299 300 300 300 299 299 300 299 299 299 298 298 298 296 296 296 296 295 295 295 294 294 293 292 291 290 289
290 294 294 292 293 292 292 289 287 286 284 282 286 290 282 281 288 295 294 292 289 290 290 291 292 292 292 292 292 291 291 291 290 290 290 290 290 290 291 291 291 292 292 292 292 293 294 294 294 294 294 295 295 296 296 297 297 297 297 297 296 297 297 297 298 298 297 296 297 296 297 297 298 298 299 298 298 299 297 297 297 297 297 296 295 296 295 295 294 293 293 293 293 292 292 291 290
295 294 295 295 293 293 291 285 285 284 283 280 284 289 281 282 289 290 292 291 289 289 290 291 292 292 291 291 291 291 291 291 291 291 290 290 291 290 290 290 291 291 292 293 292 292 293 293 293 293 293 294 294 294 295 295 295 295 295 295 295 295 296 297 296 296 296 296 295 296 296 296 295 296 297 297 297 297 297 296 296 296 296 296 295 294 293 294 294 294 294 293 293 292 292 291 291
294 294 292 291 291 288 287 287 285 283 278 282 287 289 286 279 286 289 288 291 290 289 290 291 291 291 291 291 290 291 290 290 291 291 291 291 290 290 290 290 290 290 291 291 291 291 291 292 292 292 292 293 294 294 294 293 294 294 294 294 293 293 294 295 294 294 294 295 295 295 295 295 295 294 295 295 296 296 296 296 295 295 295 295 295 294 294 293 293 293 293 293 293 292 292 291 291
294 289 287 287 286 286 285 284 283 277 277 283 287 289 289 278 281 290 291 292 292 291 289 290 290 290 290 290 290 290 290 289 290 290 290 290 289 289 289 289 289 289 289 290 290 290 290 290 291 290 291 291 292 293 293 293 293 293 293 293 293 293 293 293 293 293 293 293 293 293 294 294 294 294 294 294 294 294 295 295 294 294 294 294 295 295 294 294 293 292 292 292 292 292 292 291 290
290 287 286 283 280 282 278 280 274 277 277 283 284 288 284 284 288 291 294 292 292 293 292 291 290 290 290 290 290 289 289 289 289 288 288 288 288 288 288 288 288 288 288 288 289 289 289 289 289 289 289 290 291 291 291 291 291 292 292 292 292 292 292 292 292 292 292 292 292 293 293 292 293 293 293 292 292 293 294 293 293 293 294 294 294 294 294 293 292 292 292 291 291 291 291 291 290
287 284 283 281 277 276 273 277 280 279 283 283 284 287 281 286 289 294 291 291 292 292 292 292 291 289 289 289 289 289 288 288 288 288 287 287 287 287 287 287 287 287 287 288 288 288 288 288 288 288 288 289 290 290 290 290 290 290 291 291 291 291 291 291 291 291 292 292 292 292 292 292 292 292 293 293 294 293 293 293 294 293 293 293 293 293 293 292 292 291 291 291 290 291 291 290 291
288 289 288 283 281 277 272 276 274 276 278 283 286 280 278 278 284 289 291 291 291 291 291 290 290 289 289 288 288 287 287 287 287 287 286 287 287 287 287 287 287 287 287 287 288 288 288 287 287 287 287 288 289 289 289 289 289 290 290 290 290 291 290 291 291 291 291 291 292 292 292 292 291 292 292 293 294 294 293 293 293 293 293 292 292 292 294 292 291 292 291 290 290 290 290 290 290
289 291 289 284 282 285 280 281 280 279 280 280 280 280 283 286 290 289 290 290 290 290 289 289 288 288 288 287 286 286 286 287 287 286 286 286 287 287 287 287 287 287 287 287 287 287 287 287 286 286 286 287 287 288 288 288 288 289 289 289 289 289 289 290 290 290 290 291 290 291 291 291 291 291 292 292 293 293 293 293 292 292 292 292 291 291 291 290 290 290 290 289 289 290 289 288 289
287 287 282 286 292 290 282 281 283 281 280 278 284 283 287 290 292 289 289 288 288 288 288 288 287 287 286 285 285 285 286 286 285 285 285 286 286 286 286 286 286 286 286 286 287 287 287 287 286 286 286 286 286 287 287 287 287 287 287 287 288 288 288 288 288 288 289 290 290 290 289 290 290 291 292 292 292 292 292 292 292 292 291 291 290 290 289 288 288 289 289 288 288 288 288 288 288
287 281 286 293 293 293 285 277 280 278 276 277 283 279 281 282 278 286 287 285 286 286 286 286 287 285 285 284 284 285 285 285 285 285 285 285 286 285 286 286 286 286 287 286 286 286 286 287 286 286 285 284 284 285 285 286 285 285 285 285 286 286 286 286 287 287 287 287 288 288 289 289 289 290 290 291 290 290 289 290 290 290 289 288 288 288 287 287 287 288 288 288 288 287 287 287 287
290 287 294 285 280 279 283 282 273 274 274 276 280 282 281 284 284 286 285 285 285 285 286 285 285 284 284 284 284 284 285 285 285 285 285 286 285 285 285 285 286 287 288 287 288 288 286 285 284 285 285 285 283 284 283 284 284 285 285 284 283 284 285 285 285 286 286 286 286 287 287 287 288 289 289 288 288 287 287 288 287 288 288 288 287 287 287 286 286 287 287 288 287 286 287 287 287
294 293 288 294 287 284 281 282 280 281 276 277 277 282 279 287 284 287 287 287 286 285 285 284 284 284 284 283 284 284 284 284 285 285 285 285 285 285 285 285 285 286 286 287 287 287 286 286 284 283 282 282 283 283 283 282 282 282 282 281 281 282 283 283 284 285 284 285 285 286 286 285 286 286 286 286 286 286 287 287 287 287 287 287 287 286 286 286 286 287 287 287 287 286 286 286 287
283 285 282 286 284 286 285 283 280 278 275 275 275 273 278 286 289 288 287 287 287 286 285 284 284 284 285 284 285 284 284 284 284 284 284 285 285 285 286 286 286 286 286 286 286 286 286 285 284 283 283 282 282 282 282 282 282 282 282 281 281 280 281 281 281 282 282 283 284 284 284 285 284 284 284 285 285 285 286 286 286 286 287 287 287 287 287 285 285 286 286 286 286 285 286 286 286
288 285 282 285 281 279 278 277 286 281 279 276 276 275 281 288 290 290 288 288 288 287 285 284 283 284 284 284 284 284 283 284 284 284 284 285 285 286 285 286 286 285 285 284 285 284 283 282 283 283 283 282 281 281 280 281 281 282 280 282 281 281 281 280 279 280 280 281 282 283 284 284 284 284 284 284 284 284 284 284 284 285 285 286 286 286 286 286 286 286 286 287 287 285 285 285 285
Wind_Speed
7 7 6 4 4 4 3 2 2 1 1 4 4 3 1 1 1 1 6 4 3 2 2 2 2 2 2 2 3 4 3 2 2 3 1 1 2 2 5 4 3 7 8 10 9 10 11 14 15 15 14 14 15 14 14 13 12 11 11 11 11 11 10 10 10 10 10 10 9 8 9 9 9 10 9 9 8 6 5 4 4 3 3 4 5 7 8 9 9 9 9 10 8 8 9 9 9
6 4 3 3 3 2 1 2 1 3 3 3 3 4 1 0 1 5 5 4 2 2 2 1 2 2 3 5 3 4 5 6 1 2 3 4 4 3 4 4 4 9 7 9 11 10 9 11 15 16 16 15 14 14 14 14 13 12 12 11 11 11 11 11 11 10 10 9 9 8 8 9 9 9 9 8 8 7 6 5 3 4 3 4 7 7 8 8 8 8 8 9 7 6 8 8 8
6 6 4 3 3 2 3 1 2 4 4 2 3 3 1 2 6 4 4 4 3 2 1 2 1 1 3 4 3 2 1 1 2 3 3 6 6 3 4 3 3 6 7 9 10 11 9 10 14 16 17 16 16 15 14 14 13 13 12 12 12 12 11 11 11 11 10 10 9 9 9 9 9 9 9 8 8 7 7 6 5 4 5 7 7 7 8 7 8 7 7 7 5 6 7 7 7
4 5 3 3 2 2 2 1 2 3 4 4 4 1 2 1 3 3 2 4 2 0 0 2 2 2 1 3 1 4 2 1 4 2 2 1 1 6 4 3 3 5 5 8 9 9 9 12 15 16 16 17 17 15 14 14 14 14 13 12 12 11 11 11 11 11 10 10 9 10 10 10 9 10 9 9 8 8 7 6 6 5 7 7 7 7 7 7 7 6 7 5 4 5 6 6 6
4 4 2 3 1 1 1 2 3 2 2 2 2 3 4 4 3 4 3 1 4 1 0 1 1 2 0 2 2 1 1 1 4 1 2 1 2 5 6 4 3 5 4 7 9 9 8 16 15 15 17 16 17 15 15 15 15 15 14 13 12 12 12 11 11 11 11 11 11 11 11 10 9 10 11 10 9 8 7 7 8 7 7 7 6 6 6 6 6 4 5 4 3 4 5 5 6
5 5 3 1 0 0 0 2 3 5 1 3 3 3 3 4 4 5 3 2 6 3 1 1 1 3 0 2 2 2 3 2 1 2 1 1 2 3 7 5 3 4 5 4 9 8 8 17 14 15 18 17 19 17 15 15 16 15 15 14 13 12 12 12 11 11 12 11 11 12 11 11 11 11 11 11 10 9 9 8 6 5 4 6 6 5 4 5 4 4 3 4 2 4 5 5 6
2 2 1 1 2 1 1 3 5 4 2 1 2 4 4 3 5 4 4 3 1 4 1 0 3 3 2 2 1 3 1 3 0 1 2 4 2 4 7 4 4 4 7 4 7 8 11 18 16 15 16 16 18 17 16 17 17 16 15 15 14 13 13 13 13 12 13 12 12 11 11 12 13 13 11 10 9 8 9 7 5 5 3 4 3 3 4 2 2 3 3 2 2 4 6 6 6
2 0 0 0 1 1 2 3 5 1 1 3 1 1 3 4 3 3 3 2 0 0 2 1 0 1 6 3 1 1 4 2 7 6 6 5 4 4 4 4 4 4 7 4 5 5 15 18 17 15 15 15 16 16 17 17 18 17 16 16 15 14 13 13 13 13 13 12 12 11 12 13 13 12 12 12 9 7 8 8 5 4 3 2 2 2 2 2 2 3 2 2 2 5 6 6 6
2 1 0 0 2 2 2 4 4 2 1 3 2 0 2 2 1 1 2 2 3 1 1 3 3 0 1 4 3 2 2 5 8 6 6 5 5 5 3 4 4 4 7 5 5 7 11 17 18 17 14 15 15 15 16 17 17 17 17 17 16 15 15 14 13 13 11 11 10 12 13 13 14 13 12 11 10 8 7 6 6 4 4 3 5 3 1 1 2 3 2 3 3 5 6 6 6
1 1 1 1 2 3 3 3 2 3 1 3 1 1 5 5 3 1 1 4 3 3 2 2 0 3 4 4 5 3 3 5 7 4 4 4 4 4 4 3 3 5 6 5 6 7 7 15 17 17 15 14 14 14 14 16 16 16 18 17 17 17 15 14 14 14 13 11 12 12 13 14 13 13 12 11 10 9 8 6 4 4 5 5 5 5 4 2 1 3 3 4 5 5 5 6 6
1 2 1 1 2 3 3 4 6 4 4 2 1 9 5 2 1 2 2 2 2 1 3 4 2 3 3 3 3 1 5 4 5 5 4 4 2 4 4 4 1 4 5 5 6 8 8 9 15 16 15 14 13 13 14 14 15 15 16 16 17 16 16 15 15 14 12 12 12 12 14 15 13 14 13 12 10 10 8 8 7 5 4 5 7 5 3 3 3 2 4 4 5 6 5 5 6
2 1 1 2 3 3 3 4 5 3 5 4 3 4 1 2 2 2 3 4 5 4 5 7 1 2 3 3 1 1 4 4 4 5 5 4 3 3 3 4 2 3 5 5 5 8 8 8 8 12 15 14 13 13 13 13 14 14 14 14 14 14 15 15 14 13 13 13 13 14 14 15 14 14 13 13 12 11 9 9 7 7 6 4 4 6 5 3 3 2 3 5 5 5 6 6 6
1 4 2 2 3 3 5 5 2 4 5 3 5 3 0 1 2 3 3 4 5 6 3 3 3 2 2 3 1 5 3 1 3 4 4 4 4 4 1 4 4 3 3 6 5 5 9 8 8 8 10 13 11 11 12 13 13 13 13 13 13 13 13 13 13 13 13 14 14 15 16 14 12 11 11 11 12 9 10 9 9 8 7 7 7 6 6 6 4 3 5 5 5 5 6 6 6
2 2 3 2 4 4 3 3 5 3 2 3 4 3 1 1 1 2 2 4 4 3 0 2 2 4 5 3 6 3 1 3 4 3 2 2 4 4 3 2 5 4 3 5 5 5 7 9 8 8 9 9 8 8 11 13 13 13 12 12 12 12 12 12 12 11 12 13 14 15 14 13 13 12 12 12 12 11 10 10 9 9 9 9 8 8 7 5 4 5 5 5 5 5 5 6 6
2 3 1 2 3 3 3 3 2 4 4 3 1 3 0 1 1 0 2 4 5 3 1 3 2 1 2 2 1 2 4 4 4 3 3 1 2 2 4 1 4 2 4 4 4 5 6 8 9 9 9 9 9 8 7 10 13 13 13 12 12 12 11 12 12 11 12 12 13 13 11 10 11 12 12 10 12 10 9 8 8 8 7 8 8 7 7 6 6 6 6 7 7 6 6 5 6
1 3 1 1 3 3 3 1 2 1 2 4 1 3 1 4 3 0 1 0 3 5 1 2 3 3 4 5 8 1 5 6 4 4 4 4 1 2 2 1 3 3 3 4 5 6 5 6 8 9 10 10 9 8 8 8 11 13 13 13 13 13 12 12 12 11 12 12 10 10 10 8 8 9 12 10 12 11 10 7 9 7 9 9 8 9 8 8 8 8 8 8 8 7 7 6 6
1 0 1 2 5 3 2 2 0 2 3 2 3 3 1 3 2 0 2 1 3 8 6 5 5 4 8 8 8 1 6 7 6 5 4 4 4 3 3 3 4 4 4 4 5 6 6 7 7 8 9 10 11 10 9 9 10 13 11 12 13 13 12 12 12 12 11 10 9 8 8 5 4 4 7 6 10 8 10 11 9 9 10 8 8 9 9 9 9 9 9 9 9 8 8 7 5
0 1 1 3 5 5 4 4 2 3 3 4 2 3 5 3 1 0 1 2 5 8 10 8 9 9 8 9 8 3 6 8 6 6 5 5 5 5 5 5 5 6 6 6 5 5 7 7 8 8 9 11 10 9 7 8 8 12 10 8 8 10 10 11 10 8 8 6 8 7 5 5 5 5 5 7 6 7 9 11 10 9 10 8 7 9 10 10 11 11 10 10 10 10 9 4 4
2 2 2 4 2 3 7 5 6 4 4 7 5 5 4 5 5 1 3 4 4 7 8 7 10 7 9 13 10 6 7 6 7 7 6 6 6 6 7 6 7 5 6 6 7 8 7 7 6 8 8 10 11 10 8 7 8 9 9 9 8 10 9 9 8 8 7 6 6 7 6 6 6 6 5 7 6 9 8 10 11 10 9 7 7 9 10 11 11 12 11 11 11 11 6 4 3
4 2 3 5 4 5 5 4 4 2 4 5 5 4 6 5 5 3 4 6 4 8 10 7 6 9 7 5 3 8 8 9 8 8 7 6 6 7 6 6 8 8 8 9 8 8 7 8 9 9 8 9 10 9 8 8 7 9 9 8 8 8 8 8 8 8 7 7 8 7 7 6 7 7 8 13 9 7 8 10 11 11 9 7 9 6 8 10 12 12 12 11 8 5 5 6 6
3 3 3 3 4 6 6 8 7 6 5 4 4 5 8 6 5 3 4 7 6 8 9 10 9 8 12 10 10 7 5 4 5 8 7 7 7 6 6 6 7 9 8 8 7 9 11 10 9 9 9 8 8 8 9 8 7 9 9 9 8 8 8 8 8 7 7 8 9 7 7 5 6 7 7 7 7 7 7 6 6 6 4 5 8 4 5 4 5 5 4 6 4 5 5 5 6
2 4 4 5 6 6 7 8 7 4 3 3 4 5 5 5 5 4 4 8 8 6 7 9 13 12 9 11 11 7 7 6 6 5 8 8 8 8 6 5 5 4 7 7 9 9 10 11 10 9 9 9 9 8 8 8 8 7 9 9 9 8 9 8 8 7 7 8 7 8 7 7 6 6 7 7 7 7 7 7 7 7 6 6 6 6 5 4 4 5 5 4 5 6 4 4 4
4 4 7 7 6 8 5 4 1 2 3 5 5 4 5 5 7 7 8 12 10 8 9 13 15 12 10 8 8 9 8 8 6 6 6 6 7 6 6 5 5 7 6 8 8 7 9 9 9 9 10 10 10 9 7 7 8 7 8 9 9 8 8 9 9 8 8 7 7 7 8 7 7 6 7 7 7 7 7 7 6 6 6 6 6 7 6 6 6 6 6 6 6 5 3 3 2
4 6 4 9 10 13 10 8 6 2 5 6 4 5 7 6 10 5 8 11 12 11 9 12 14 12 10 9 8 9 9 8 7 6 6 8 7 7 7 6 5 4 5 6 7 7 8 11 10 9 9 10 9 10 9 9 7 8 8 8 9 9 9 8 9 8 9 9 7 7 8 7 7 6 7 7 6 6 7 7 7 6 6 6 6 6 7 7 7 7 7 6 5 4 4 3 3
3 6 5 7 5 5 5 4 5 5 8 7 5 6 10 7 9 6 13 15 15 13 10 13 13 12 10 9 9 8 9 8 8 7 6 6 6 6 4 5 5 5 5 6 7 7 7 9 10 11 9 10 9 10 10 9 8 8 7 7 7 8 8 7 8 8 8 7 7 7 7 7 7 7 8 7 6 6 6 7 7 7 7 6 8 6 6 7 7 7 7 7 5 6 5 4 4
4 5 4 4 4 6 7 9 8 8 7 3 4 10 10 9 9 11 15 16 15 10 9 12 13 10 10 10 8 8 7 7 7 7 7 5 5 5 5 5 5 5 7 7 5 7 6 8 10 11 10 10 9 9 9 8 9 8 8 8 6 7 7 7 6 7 7 8 7 7 8 8 7 7 7 7 7 6 6 7 7 7 7 7 8 8 6 8 7 8 6 6 6 5 5 4 4
3 4 5 7 7 8 7 10 12 10 8 5 6 10 10 6 2 8 6 12 9 7 9 6 7 9 8 7 8 7 7 7 9 9 5 2 4 5 6 5 5 7 5 5 4 5 6 7 8 9 9 8 7 8 8 9 8 9 9 8 7 7 7 7 7 7 7 7 8 8 7 7 7 7 7 7 7 7 6 7 7 7 7 7 8 8 6 7 7 7 7 7 7 6 6 4 4
5 5 7 9 10 11 12 12 14 8 7 9 7 11 11 8 4 12 15 13 10 8 8 8 6 7 7 9 10 7 6 6 6 4 4 3 5 5 5 5 6 5 4 5 4 4 5 6 7 8 9 8 8 8 7 8 8 7 7 8 9 7 7 7 7 7 7 7 7 9 8 7 7 7 8 8 8 7 7 7 7 7 7 7 7 6 7 6 6 5 5 5 5 5 5 5 4
3 4 6 11 11 11 12 12 11 5 7 5 3 2 10 6 5 14 16 14 11 8 7 7 6 6 6 6 7 6 5 4 4 4 4 4 3 3 4 4 5 5 5 6 6 4 4 5 5 6 7 6 7 7 7 6 5 5 5 6 6 7 7 7 7 7 7 7 7 9 9 9 7 7 8 9 8 7 7 7 7 6 6 7 6 5 6 5 5 6 6 5 6 5 6 4 4
3 4 6 11 9 7 11 11 8 9 0 9 6 3 2 10 8 7 7 2 5 7 9 11 9 8 9 8 7 7 6 5 5 5 4 2 4 7 8 9 8 5 3 1 2 4 4 1 4 3 6 6 7 6 5 5 4 4 4 4 4 5 5 7 7 6 7 7 7 8 9 9 8 7 8 8 8 8 8 8 7 6 6 6 6 7 7 7 7 6 6 7 6 7 7 5 6
4 5 3 5 6 4 7 3 5 3 1 6 4 4 3 10 10 5 6 10 11 11 13 14 10 9 7 5 5 5 5 2 4 13 18 18 14 12 13 14 14 12 11 11 7 2 1 1 2 2 3 4 6 5 5 5 5 4 4 4 4 4 4 5 5 6 6 6 7 6 7 8 8 7 7 9 8 8 8 8 8 7 7 7 8 7 8 6 7 7 7 7 5 6 6 6 5
6 4 3 3 6 5 7 2 6 3 1 2 5 4 7 5 10 9 6 8 9 11 14 16 11 8 8 6 5 4 4 9 17 17 16 15 15 12 13 13 13 12 10 10 11 6 1 1 3 2 3 2 3 4 4 3 4 4 3 4 3 3 3 3 3 4 4 5 5 6 6 6 7 7 6 8 8 8 8 8 8 8 7 8 8 7 7 8 6 6 5 7 7 5 7 6 4
5 6 5 6 4 6 5 0 7 3 4 2 8 5 2 4 5 13 11 11 12 12 13 14 13 9 7 5 4 2 6 15 14 16 15 13 13 13 12 13 14 14 13 14 12 10 8 5 2 3 2 1 1 2 2 1 2 3 2 2 1 2 2 2 1 2 2 3 3 6 5 5 5 6 6 7 8 7 7 7 7 8 7 8 8 8 8 7 7 6 6 6 7 7 7 6 4
5 5 5 3 4 3 3 6 5 6 5 3 7 5 6 8 9 13 13 11 12 11 11 12 10 6 6 4 3 8 14 12 14 14 15 14 12 14 12 11 12 13 11 13 12 12 9 8 5 4 5 3 2 1 2 1 1 3 2 2 1 1 1 1 0 1 1 2 3 5 5 5 5 5 5 6 7 6 6 6 6 7 7 8 7 8 8 7 6 8 8 5 8 6 7 7 6
4 5 6 6 4 4 8 5 1 2 2 4 3 5 6 5 6 7 13 18 14 11 11 9 10 7 5 5 9 14 12 13 12 11 13 13 13 11 10 11 11 11 11 12 12 12 11 10 8 6 5 5 3 3 4 3 3 4 4 3 2 1 2 1 1 2 2 2 2 4 5 5 5 5 5 5 6 6 6 6 7 6 7 7 7 7 7 7 7 7 8 7 5 7 8 7 7
7 6 5 6 6 5 7 8 7 2 1 4 4 7 5 5 8 10 13 16 11 13 12 9 6 6 5 12 10 11 10 12 9 10 11 11 10 10 9 10 9 10 10 11 11 12 12 11 10 7 5 5 4 4 5 5 3 2 2 2 2 1 2 1 1 1 2 2 2 3 4 4 4 5 4 5 5 6 6 7 7 6 7 7 7 7 7 7 8 8 8 9 7 5 6 7 7
7 5 4 5 7 7 7 8 8 4 2 3 3 4 6 8 9 13 16 13 10 12 11 8 4 8 10 10 11 10 12 10 7 9 11 11 11 10 9 9 9 9 10 11 11 12 11 10 10 10 6 5 5 4 4 3 2 2 2 1 0 1 1 1 0 1 1 1 3 4 4 4 4 4 5 5 6 6 7 6 7 7 8 8 8 8 7 7 6 7 7 6 8 6 5 6 7
6 4 5 6 4 11 7 6 5 3 0 2 4 5 5 10 13 16 13 7 9 6 5 6 14 9 10 10 10 10 7 7 9 11 12 11 11 10 9 9 9 12 12 11 11 11 10 10 10 9 10 9 8 7 4 3 2 1 1 0 1 1 2 2 1 0 1 2 3 4 4 4 5 5 5 5 6 6 6 6 7 8 8 8 8 7 7 7 6 6 6 5 5 8 6 8 9
5 4 3 4 7 7 6 9 2 1 1 4 3 6 7 10 16 17 11 8 6 2 13 11 12 11 9 10 9 9 10 10 10 10 9 10 10 10 8 9 9 9 9 11 10 11 12 11 10 10 11 10 10 9 9 7 8 8 8 6 6 3 6 5 5 4 4 5 5 4 3 2 2 2 4 4 5 5 6 6 7 7 7 8 8 8 8 8 8 9 8 8 6 3 3 5 10
4 4 3 7 6 3 3 1 2 1 1 4 6 8 7 10 15 16 14 6 1 14 15 14 11 12 12 12 10 9 9 8 10 10 10 9 9 9 9 10 9 9 10 11 12 11 10 11 11 11 10 10 9 10 9 6 7 6 6 7 6 6 4 4 5 5 5 5 4 3 2 1 1 2 2 4 4 4 6 7 6 7 7 7 8 8 8 10 9 9 9 8 7 6 4 6 8
3 6 6 6 5 5 4 3 5 4 6 6 4 5 6 9 9 4 6 5 9 9 15 12 10 10 9 9 11 9 9 8 7 9 9 10 11 11 11 9 8 10 11 11 11 11 9 11 11 10 9 10 8 10 10 6 6 4 3 3 3 2 2 3 3 2 3 2 2 2 2 1 1 2 3 4 4 4 4 4 5 6 7 7 7 7 8 9 9 10 11 10 11 11 9 5 6
6 6 8 8 7 6 2 4 5 3 3 1 1 5 3 6 5 8 8 5 7 4 12 10 9 8 9 11 9 7 6 6 7 9 9 9 10 10 10 10 11 11 12 11 10 11 10 10 9 9 9 9 9 9 10 8 7 8 7 7 6 3 2 1 1 0 2 3 3 1 2 3 2 2 2 4 4 3 4 4 4 4 5 6 6 7 7 6 7 9 10 10 11 10 11 8 7
2 2 3 2 2 3 1 3 0 2 2 2 2 2 7 3 8 7 8 9 7 4 10 8 7 9 8 10 6 6 5 6 7 8 9 10 10 10 10 11 10 11 11 8 9 10 12 10 9 8 8 8 9 9 9 8 8 7 5 4 4 4 4 4 3 4 5 3 2 1 1 1 1 2 2 2 4 4 4 4 4 4 4 5 5 6 6 7 8 9 8 9 10 9 8 10 12
4 0 2 1 0 0 1 1 3 5 3 5 5 4 7 6 6 8 12 9 10 8 7 7 9 8 9 9 7 4 6 4 4 8 9 8 9 9 9 9 10 11 9 10 11 11 12 12 10 10 8 9 9 9 9 9 7 7 7 6 6 6 5 4 4 3 3 3 3 1 0 1 1 1 2 3 3 3 4 4 4 4 4 4 5 6 7 6 6 6 8 9 9 9 11 11 10
1 0 2 1 1 1 1 3 4 4 4 7 6 6 1 5 4 11 9 6 10 8 7 8 8 7 8 9 5 4 4 5 5 7 8 8 8 10 8 8 8 9 10 11 11 10 10 10 10 10 11 10 10 11 10 10 9 8 7 6 6 6 6 5 5 6 5 3 1 1 1 1 1 2 2 3 3 3 3 4 4 4 4 5 4 5 5 5 6 6 7 8 9 9 9 9 9
1 1 1 0 1 1 4 4 3 3 1 8 3 7 5 8 7 8 2 2 8 5 7 8 7 8 7 7 6 5 3 4 4 7 8 8 9 8 6 5 7 9 9 9 9 9 9 9 11 11 12 10 10 11 10 10 9 8 7 7 6 6 6 7 6 6 5 5 5 2 1 2 2 2 2 3 3 3 3 3 4 4 4 5 4 5 5 5 6 6 7 9 9 10 8 9 11
1 0 0 3 3 4 3 2 1 1 4 10 7 11 9 4 2 5 5 3 7 7 5 6 7 7 8 7 5 4 3 4 5 9 9 7 5 6 5 8 8 9 9 10 10 9 8 8 9 12 11 10 10 10 10 10 9 8 7 7 6 6 6 6 6 6 6 6 5 5 4 4 2 2 3 3 3 4 4 3 4 4 4 4 5 4 5 6 6 6 6 7 8 10 9 9 8
1 0 0 3 6 2 1 0 3 0 6 4 5 8 11 6 3 1 3 4 13 13 14 13 10 8 8 6 4 4 4 4 5 6 6 6 5 7 7 9 9 9 10 10 9 7 7 7 9 11 12 11 10 10 10 11 9 9 8 8 8 7 7 6 6 6 7 6 6 6 6 6 6 3 1 2 3 4 4 4 4 4 4 4 5 5 5 5 6 5 5 5 6 8 8 9 9
1 1 2 0 2 1 2 3 2 4 6 3 4 2 2 8 5 8 8 1 3 5 8 11 11 9 8 7 5 4 4 3 4 6 6 5 5 5 6 6 7 8 9 9 9 7 7 9 11 12 12 10 10 9 10 10 10 9 9 9 8 7 7 7 6 7 6 7 7 6 7 7 6 7 7 3 4 4 4 4 4 5 5 5 5 4 5 5 5 6 6 5 6 7 8 9 9
4 4 4 2 1 1 3 4 3 3 1 1 2 5 1 2 5 7 1 9 8 9 10 9 9 10 9 7 5 4 2 3 5 6 5 4 4 4 4 5 5 5 5 4 6 8 9 10 11 12 10 10 9 9 9 9 9 9 8 8 8 7 8 7 7 7 7 6 6 6 6 6 6 5 6 6 6 4 3 4 5 5 5 5 4 5 5 5 5 5 5 6 6 7 6 9 10
9 4 6 5 3 2 3 2 5 4 4 1 0 3 5 2 3 5 9 8 10 9 10 9 9 9 8 7 5 4 3 4 5 6 5 5 4 4 3 2 1 0 2 4 7 9 8 9 11 11 11 11 11 10 9 10 8 8 8 8 8 7 7 7 7 7 7 7 7 7 6 6 6 6 6 6 6 7 4 4 4 5 5 5 5 4 5 4 4 4 5 6 6 5 7 8 9
3 2 3 1 5 2 7 3 4 4 6 6 2 5 2 2 6 5 6 8 10 8 10 9 8 7 6 6 4 3 3 5 5 5 4 3 2 1 1 0 0 3 5 6 7 7 8 8 8 8 8 8 9 9 9 8 8 8 8 9 9 8 7 6 7 7 7 7 8 8 8 8 8 7 7 6 6 6 6 4 4 4 5 5 5 5 5 4 5 5 5 5 6 4 6 7 8
1 3 2 5 0 0 2 4 4 5 4 11 4 6 9 4 6 8 6 9 6 7 7 8 7 6 6 4 4 3 4 5 4 4 3 2 1 1 1 2 4 4 5 7 7 8 9 8 7 7 6 6 7 7 8 8 8 8 9 9 9 9 9 9 8 9 8 7 6 6 6 7 7 7 7 6 7 6 6 5 5 6 5 5 5 5 5 5 4 4 5 5 6 6 6 6 7
5 0 4 1 0 1 2 5 3 5 8 7 6 6 5 3 5 3 5 8 6 6 5 6 7 5 5 4 4 4 4 4 3 3 2 2 1 2 2 3 4 4 5 6 7 6 5 6 5 5 5 6 5 4 4 5 6 7 8 9 9 8 8 8 8 9 8 8 8 7 7 7 7 7 7 7 7 8 7 7 6 7 7 6 5 5 5 4 4 4 4 5 6 5 6 6 6
2 3 1 1 1 2 2 1 3 5 7 5 4 8 8 7 7 3 4 6 6 6 5 5 6 5 4 4 5 4 4 3 2 1 1 0 1 1 2 3 4 4 4 4 5 5 5 5 5 5 6 6 5 5 5 4 4 4 6 7 8 9 9 8 7 7 7 8 9 9 9 8 8 8 8 8 8 7 7 7 5 6 7 7 6 5 5 5 4 4 4 6 5 5 6 7 7
2 2 3 1 0 4 5 4 3 3 9 5 6 7 7 6 1 2 2 9 8 7 6 4 5 5 4 3 4 4 3 3 1 1 2 1 1 2 2 3 3 3 3 4 4 3 4 3 4 4 5 5 5 6 5 5 4 4 4 5 5 6 7 7 7 7 9 8 8 8 8 9 10 9 8 8 7 7 7 7 6 6 6 6 6 5 5 5 4 4 5 6 6 5 6 7 7
2 1 2 0 2 1 2 1 4 4 5 4 5 5 3 1 4 4 5 6 8 9 8 6 5 5 4 4 4 4 4 4 3 4 3 2 2 3 1 1 1 1 1 2 2 3 3 4 4 4 5 5 5 5 5 5 5 5 3 4 4 4 5 5 6 5 6 6 7 7 7 7 7 8 8 9 9 9 9 8 8 8 7 7 7 7 5 4 4 5 5 5 5 5 6 7 6
1 5 4 5 4 3 6 10 4 4 4 6 7 12 4 1 2 4 3 4 4 5 8 6 5 4 4 4 4 4 4 4 4 4 4 2 3 2 3 2 2 2 1 2 1 2 1 2 2 3 4 4 4 5 4 5 5 5 5 3 2 2 3 4 4 4 5 5 5 5 5 6 6 7 6 7 7 6 6 8 7 8 8 8 8 8 7 6 6 6 5 5 5 6 7 7 6
Wind_Direction
287 253 236 249 264 265 311 225 317 181 221 231 249 37 66 94 304 341 46 6 43 94 55 321 347 306 336 344 286 292 303 329 303 338 245 213 152 126 111 134 140 136 133 137 145 157 161 158 162 160 165 168 165 166 169 169 166 166 169 168 170 170 167 165 163 163 163 161 157 160 157 155 152 150 150 148 139 130 121 95 92 95 79 90 89 108 109 105 99 90 87 82 80 82 83 83 78
272 285 286 260 263 331 271 28 248 277 216 253 1 67 351 6 196 48 26 37 51 23 52 323 306 333 285 271 284 321 279 206 229 35 106 107 144 97 117 164 165 153 137 137 144 159 162 163 162 160 165 168 166 167 169 169 167 166 169 171 172 172 169 170 171 169 169 170 166 167 171 169 164 160 157 148 140 139 127 129 133 144 130 107 113 118 106 102 94 90 89 87 79 84 83 83 78
318 315 286 223 267 217 290 271 296 322 330 17 58 46 305 52 46 31 41 55 38 34 350 257 204 223 239 223 278 215 280 326 69 50 88 152 124 156 142 175 190 152 136 133 151 160 161 167 165 162 166 168 168 168 168 168 167 168 169 171 173 174 174 173 177 176 174 178 178 173 179 178 171 163 158 152 145 141 138 140 148 154 129 125 121 117 113 100 92 91 87 87 88 79 80 78 75
291 284 280 288 286 159 264 183 228 283 323 312 101 59 78 15 39 56 31 74 117 153 15 317 346 115 278 271 337 321 220 27 84 36 114 112 65 139 145 165 188 146 129 136 155 162 163 165 166 166 168 168 169 169 168 165 169 171 170 173 177 177 178 178 181 182 182 183 184 183 186 182 170 160 154 153 145 140 136 136 132 128 135 132 132 121 103 96 88 92 92 94 85 83 76 73 73
287 262 230 304 304 275 322 285 303 317 265 8 0 111 31 56 16 45 19 327 98 100 20 324 269 193 243 292 319 284 12 77 45 87 103 48 32 125 136 132 221 136 144 141 155 162 164 163 168 168 169 171 170 170 168 169 171 175 174 177 177 185 186 186 188 189 189 190 189 188 190 177 166 159 157 154 147 142 129 128 127 130 135 135 127 114 110 95 93 91 93 93 94 92 83 74 66
254 267 179 214 330 156 337 301 236 224 276 37 4 5 31 36 4 32 324 352 109 91 49 303 293 338 304 235 187 234 54 14 238 60 64 144 124 145 132 145 205 149 149 165 155 161 158 164 170 172 171 173 173 170 170 172 175 176 177 180 181 186 191 191 194 194 194 195 196 192 186 169 167 163 157 150 148 144 134 131 91 45 146 138 140 132 117 111 110 97 102 100 88 89 84 73 65
298 288 189 242 277 101 256 286 296 331 54 330 54 8 350 10 32 4 343 8 59 98 20 353 27 303 248 273 165 235 83 143 79 120 59 162 141 133 129 174 174 168 151 182 144 168 149 163 171 175 173 176 175 172 171 175 178 178 179 183 184 187 193 195 196 199 196 198 202 193 182 174 166 169 155 146 126 127 125 129 101 62 23 145 155 151 130 149 131 125 99 103 89 88 86 80 69
239 357 135 226 228 113 211 231 260 232 153 92 125 323 15 348 32 34 326 319 104 356 200 119 101 94 268 113 257 104 68 45 120 122 127 123 109 119 159 174 163 178 148 179 157 151 154 162 169 177 175 181 178 174 174 178 179 180 180 181 184 186 192 198 199 201 201 199 203 193 184 175 172 171 157 136 143 143 131 124 117 104 57 162 110 138 227 161 162 122 107 90 98 95 87 82 77
233 212 37 2 252 177 250 256 242 193 293 81 43 76 131 50 59 41 317 306 259 67 182 136 137 339 29 339 295 155 55 97 89 98 107 120 140 141 175 187 171 165 152 176 124 127 156 165 168 172 178 182 180 179 179 180 183 182 182 184 184 187 190 197 201 204 206 204 195 187 184 177 178 168 157 151 156 157 144 138 140 140 143 197 145 136 109 168 154 116 104 94 109 94 91 87 86
270 132 298 280 356 298 248 247 199 82 258 86 111 14 38 31 16 39 331 293 69 273 104 126 174 223 325 305 303 135 213 140 121 107 126 138 131 161 148 199 184 149 149 167 125 138 152 166 167 171 174 180 184 181 183 185 187 187 188 189 189 190 192 195 201 202 204 204 194 192 184 180 178 171 160 167 167 164 159 149 155 172 197 192 207 209 206 215 156 138 116 120 109 100 95 93 90
261 173 166 346 234 250 270 346 15 346 347 23 57 71 58 64 8 317 235 258 175 236 169 130 172 223 255 273 242 29 105 149 151 135 149 132 139 155 158 175 187 151 157 161 144 134 145 167 170 171 173 179 181 183 188 189 191 192 193 194 194 193 193 196 200 202 201 201 196 188 189 186 180 174 173 175 175 158 165 172 169 190 202 218 218 216 211 208 200 134 126 123 114 104 102 97 89
282 184 89 310 304 314 345 10 329 323 323 286 93 79 17 75 273 287 5 336 344 320 303 146 69 341 320 279 288 178 128 77 81 118 115 134 180 164 155 153 154 185 153 156 143 130 153 163 167 174 177 178 182 184 188 192 194 195 197 197 198 197 197 198 198 202 195 198 190 186 190 188 187 184 183 184 176 181 186 189 178 182 198 206 209 220 205 201 217 152 137 123 117 117 112 105 94
265 332 304 291 278 321 340 329 288 354 286 23 106 66 150 98 295 339 345 341 305 307 35 29 16 355 297 297 223 121 90 337 89 118 146 177 162 144 274 142 173 193 151 155 147 152 150 160 172 176 179 180 183 184 187 191 194 194 195 198 200 202 202 201 202 199 193 195 184 185 191 188 182 181 181 189 180 179 172 173 172 180 189 202 204 203 201 200 205 176 135 129 129 127 118 111 103
325 348 0 284 338 300 284 283 286 255 309 124 63 149 100 329 64 20 333 293 304 323 104 16 344 64 285 263 295 121 207 184 143 129 176 148 119 145 187 147 164 184 163 158 166 182 154 162 172 175 177 180 186 186 189 190 191 194 194 195 201 204 203 203 202 192 194 195 185 187 187 184 177 175 173 182 171 173 173 173 181 179 189 202 200 198 199 193 175 169 143 140 140 132 117 105 98
326 339 328 293 294 312 253 232 312 15 283 84 189 143 238 170 188 159 284 291 273 98 196 199 186 97 253 341 251 180 192 175 150 157 123 107 114 152 163 132 143 198 168 173 184 186 186 161 173 174 179 184 188 187 186 191 191 194 194 196 198 201 202 201 197 195 195 194 188 188 185 174 173 174 170 163 163 164 166 160 170 172 190 201 198 197 199 185 180 168 161 153 144 134 119 106 94
319 354 255 291 276 299 289 143 261 133 269 97 200 75 283 293 156 150 264 262 291 316 359 285 135 221 271 284 265 269 158 148 167 151 150 152 158 128 132 183 165 191 221 185 191 195 189 185 165 177 179 184 189 187 188 188 194 194 195 194 196 197 195 197 195 195 195 191 185 184 177 164 163 166 165 160 157 152 145 139 147 162 189 203 198 198 194 183 181 171 175 156 147 138 126 110 99
314 49 295 210 265 234 220 221 48 269 334 65 187 153 359 333 74 322 73 359 300 285 288 253 245 193 240 243 261 157 153 154 150 161 157 155 154 179 173 199 207 194 193 214 200 192 198 188 184 172 180 185 189 190 190 192 192 193 194 194 194 194 192 194 195 189 187 189 182 172 160 153 152 152 157 151 147 147 148 142 143 164 185 205 199 195 188 183 179 182 178 158 148 136 117 109 108
119 191 200 263 247 275 336 324 346 7 339 325 308 353 341 300 325 160 23 263 244 264 268 265 251 248 238 239 237 202 148 152 172 163 183 186 172 185 190 200 184 206 193 198 210 203 192 198 196 179 176 185 186 191 192 192 187 189 192 189 191 191 190 188 191 185 184 178 169 157 163 157 145 150 153 144 147 148 150 147 152 161 185 200 194 189 186 180 180 183 176 159 148 124 110 89 79
194 262 226 247 270 283 338 321 320 359 324 333 319 319 349 316 357 329 302 294 301 302 283 291 288 272 248 237 234 212 158 183 179 188 197 197 188 201 199 190 196 198 195 194 201 204 196 198 196 195 183 182 185 188 193 189 176 183 191 188 189 188 187 184 183 186 178 172 167 170 172 164 153 158 155 157 150 150 151 149 156 165 185 187 183 182 185 181 181 184 177 159 145 140 139 141 142
221 233 263 263 267 273 275 296 310 325 310 299 326 348 351 314 309 296 257 281 283 272 283 293 279 276 285 329 243 232 204 207 193 191 214 219 213 211 212 197 194 201 199 189 193 192 194 194 200 199 192 183 183 187 189 185 181 176 186 187 186 189 190 189 190 185 180 173 170 174 180 175 169 158 169 159 147 150 154 154 160 163 179 168 172 166 169 182 184 182 181 155 146 159 189 166 163
179 190 227 255 294 332 319 315 313 327 4 1 339 337 310 293 285 308 305 301 258 254 252 260 280 304 320 318 318 311 285 256 197 199 209 224 229 225 224 218 197 196 199 183 173 189 193 194 193 197 192 187 185 186 186 188 178 172 183 187 186 187 192 191 196 192 188 182 170 177 183 182 176 162 162 154 152 147 153 156 158 159 150 160 153 137 144 158 154 141 139 133 156 190 222 180 167
338 240 253 275 305 292 299 307 354 29 13 303 294 299 285 312 294 277 240 245 256 255 279 289 284 286 293 301 298 296 285 272 260 209 211 220 228 233 233 243 241 202 174 175 188 186 192 194 191 192 191 190 189 187 187 185 186 172 181 186 187 188 189 194 194 199 197 193 176 178 180 185 179 150 147 155 154 147 155 160 162 159 152 160 156 144 148 144 137 134 146 166 197 210 206 179 179
237 233 242 239 247 256 272 280 48 40 327 303 291 282 314 297 290 281 274 262 263 254 264 269 272 272 269 275 284 283 278 273 260 249 241 243 244 236 230 227 217 221 178 194 182 190 187 191 194 188 191 190 190 187 186 183 191 189 175 183 187 192 186 191 195 197 203 197 191 176 179 186 180 153 152 157 159 153 156 159 165 166 162 159 168 150 161 159 158 157 164 188 214 193 174 124 93
208 259 303 293 294 283 290 293 324 306 281 270 268 303 277 282 282 282 279 268 266 266 265 270 277 279 273 266 258 261 268 270 261 249 237 238 244 240 221 220 232 223 187 191 187 185 177 191 193 191 194 191 188 187 189 191 191 189 189 179 188 190 188 188 190 192 196 201 193 183 177 179 176 160 157 157 169 157 157 159 163 170 170 161 173 160 164 164 176 166 170 193 198 152 135 136 135
249 251 237 254 269 283 288 281 283 278 271 278 292 275 262 260 263 298 273 277 272 265 259 265 267 272 276 267 263 257 259 268 268 256 250 242 238 244 232 211 213 225 221 203 192 182 186 187 189 193 192 195 194 187 193 192 190 191 188 192 191 183 189 187 181 179 185 191 191 183 175 178 176 166 160 161 162 167 160 160 166 176 170 163 167 187 172 166 178 167 171 185 158 145 146 162 165
240 281 331 334 303 305 306 305 285 272 277 249 267 263 266 260 272 258 261 265 267 268 252 246 259 263 255 257 261 264 261 257 263 271 254 238 231 236 238 220 225 226 222 218 186 196 184 181 189 192 192 193 193 190 198 193 189 189 192 194 190 182 190 184 176 176 180 181 184 181 177 176 175 172 157 156 166 177 169 165 167 175 173 164 164 187 180 160 169 163 166 162 153 152 159 184 156
35 311 311 308 293 296 280 269 269 262 260 243 231 265 270 267 287 274 246 253 260 257 260 244 238 246 260 273 279 283 281 267 257 257 265 219 233 220 232 223 218 231 241 248 217 196 193 178 190 192 192 190 187 194 195 199 192 191 189 189 188 187 184 182 180 176 179 179 178 177 175 172 168 168 153 160 167 174 174 170 173 171 170 169 166 176 166 158 162 164 165 162 161 157 171 172 149
342 331 317 292 283 270 268 260 257 255 251 224 229 266 281 275 236 251 263 264 263 271 282 277 252 258 266 270 272 271 270 278 279 269 255 256 254 231 226 210 226 239 248 256 242 208 181 193 189 189 190 186 186 196 194 200 200 197 188 187 191 185 176 182 182 179 182 181 171 175 174 174 168 171 155 164 167 174 175 172 171 167 171 162 164 159 158 157 161 162 157 158 158 151 153 158 149
358 347 297 278 279 275 263 260 260 225 236 142 136 317 291 269 213 242 250 259 266 265 264 271 276 261 259 276 297 304 288 284 311 318 282 252 241 225 228 201 202 225 238 227 221 202 198 198 191 190 186 178 187 191 194 202 201 196 188 190 188 181 178 179 185 183 180 180 172 171 176 178 174 167 163 164 163 167 169 168 172 169 165 154 153 147 147 151 152 152 163 153 151 137 136 163 145
288 245 248 282 280 267 264 248 238 216 99 113 97 284 255 291 296 314 311 10 341 326 303 288 282 287 288 290 291 293 296 293 281 263 261 323 8 15 22 3 0 2 339 311 190 194 199 185 171 168 181 172 187 191 183 185 197 200 192 186 188 184 185 184 189 184 178 176 169 172 174 178 180 168 158 162 160 164 169 171 170 167 158 149 147 143 154 159 158 153 165 148 157 144 152 163 144
250 257 242 263 303 272 273 217 115 131 115 136 116 225 258 287 293 299 336 346 334 315 300 290 292 291 289 285 276 278 285 291 352 28 31 32 26 23 24 18 15 8 8 0 340 213 135 118 107 126 155 178 172 189 181 176 178 184 183 185 182 185 192 191 190 185 177 175 171 166 171 175 179 173 161 161 165 164 167 167 169 170 157 151 151 157 155 162 152 160 158 152 152 144 149 165 153
250 286 244 224 194 259 281 246 131 158 241 217 111 251 245 266 302 312 327 312 297 287 283 284 282 285 293 299 297 311 331 30 40 36 30 30 24 18 22 18 11 3 9 359 360 350 65 53 113 103 124 164 157 181 178 157 167 167 158 161 161 165 165 179 187 191 178 170 161 165 176 175 177 178 162 161 165 170 168 168 171 163 160 152 154 156 156 166 160 159 173 152 155 164 153 174 159
237 215 254 263 248 271 299 69 164 171 103 251 160 227 282 281 290 295 286 274 267 265 270 276 284 283 284 281 283 292 34 44 37 32 27 24 22 21 21 14 15 10 11 9 4 3 6 7 90 119 103 140 152 149 155 144 114 126 117 121 129 136 148 159 165 171 158 166 150 155 173 175 181 181 167 166 166 168 167 166 170 165 159 156 155 162 164 167 157 162 178 175 163 162 161 167 162
257 223 241 256 278 304 273 341 349 130 145 191 220 238 229 240 249 269 293 287 279 277 284 288 293 290 280 286 290 56 58 48 37 27 24 22 19 19 17 15 20 14 14 10 6 6 5 8 26 67 47 42 32 64 127 106 81 85 80 81 85 94 124 116 153 130 151 143 132 145 164 175 183 184 169 163 165 166 161 161 165 163 158 156 156 162 175 167 162 160 174 185 171 157 163 163 159
278 313 304 293 310 334 298 303 255 314 162 232 249 252 278 294 298 292 284 281 283 287 281 284 292 302 296 308 50 62 59 52 42 33 30 24 21 16 16 14 19 18 16 9 8 9 11 7 11 53 41 18 29 44 68 65 47 49 58 55 56 45 64 57 68 82 89 88 107 129 154 169 180 184 174 161 159 164 160 160 164 167 158 157 157 164 173 171 166 169 169 183 176 168 162 165 153
263 274 274 296 292 283 282 275 285 297 286 287 269 270 293 295 284 277 269 270 285 282 278 284 281 273 14 59 65 60 60 56 44 40 33 32 22 19 19 18 21 21 17 14 15 16 14 11 8 17 53 22 41 41 63 53 48 58 65 39 40 31 34 51 18 87 97 99 99 106 131 148 164 179 173 165 159 163 163 168 161 159 163 159 162 165 177 179 177 174 177 174 175 162 156 151 135
274 268 264 268 283 278 272 280 285 92 333 246 281 301 290 279 278 275 271 280 278 273 279 273 299 50 65 59 62 64 57 49 37 36 38 29 24 19 22 23 23 24 24 18 23 21 18 16 13 11 6 40 43 62 57 67 67 30 36 66 101 143 151 104 206 309 323 187 120 99 109 108 144 169 175 165 176 169 175 167 154 164 163 165 168 181 178 183 181 175 172 174 167 161 166 147 148
275 276 287 283 279 274 264 290 295 65 207 289 303 290 289 295 284 272 276 281 271 262 290 35 65 67 63 61 56 54 57 54 35 34 30 29 23 21 21 28 25 30 21 19 24 22 16 12 18 16 17 22 26 31 47 62 74 116 134 167 141 99 89 89 49 6 351 49 70 91 119 135 159 172 175 174 182 177 178 175 167 169 167 174 178 172 174 177 173 174 162 174 192 168 176 163 161
315 298 305 308 261 271 288 270 288 138 33 267 306 293 290 289 280 280 283 274 266 3 68 66 72 60 51 51 49 41 43 41 38 34 30 30 24 23 25 29 31 32 26 26 23 26 20 16 18 26 24 26 23 24 30 27 27 27 41 26 38 42 50 60 59 34 32 36 46 53 63 76 120 163 181 182 187 192 186 180 182 175 178 171 168 176 177 180 180 178 174 174 186 200 152 177 168
261 276 252 238 256 262 293 212 111 39 25 296 284 293 283 276 273 275 273 253 96 75 74 72 67 76 66 54 45 42 36 34 39 31 27 26 25 22 29 31 30 27 29 29 28 28 26 20 20 24 25 23 25 20 18 25 52 49 44 42 47 62 63 47 63 56 46 44 43 44 30 62 123 176 195 203 205 205 199 195 182 172 183 178 178 181 183 187 180 179 176 181 165 173 185 196 197
235 219 230 252 261 256 243 296 352 331 297 265 289 283 269 255 268 272 269 248 85 87 85 79 75 72 80 78 63 47 40 35 35 34 29 27 26 22 24 31 30 38 33 32 29 28 28 24 22 22 24 22 20 23 17 12 35 39 45 30 37 41 38 71 80 84 112 123 113 130 228 185 184 187 196 211 211 219 222 211 195 182 183 186 180 186 190 195 192 188 183 176 179 181 194 183 212
262 243 221 231 239 261 331 360 4 339 301 85 63 336 228 240 288 300 283 279 93 86 89 85 76 73 65 63 52 50 42 32 40 38 36 32 31 22 17 22 32 35 35 29 28 31 27 26 25 22 22 21 19 22 21 14 38 40 32 30 20 6 359 17 42 92 163 163 198 205 176 180 203 212 198 207 221 227 234 232 222 192 191 190 190 193 194 191 196 195 194 188 191 193 182 167 191
270 257 21 24 59 71 2 292 44 298 239 236 183 227 280 203 267 250 255 241 111 91 86 93 86 80 73 69 68 56 48 34 24 37 36 34 33 31 19 19 25 38 36 27 32 33 31 28 25 23 23 22 18 19 23 23 31 29 39 40 31 32 19 357 21 42 36 23 77 69 166 176 220 216 248 209 209 221 230 239 236 225 203 197 197 198 201 201 201 202 194 196 198 195 173 185 189
245 242 324 32 277 187 221 241 199 243 266 266 255 231 256 279 241 257 252 238 117 102 101 95 92 90 84 88 73 54 62 52 43 42 33 32 33 38 27 9 20 35 34 36 35 30 29 28 27 25 24 24 22 17 23 23 27 25 34 29 26 29 16 4 8 29 56 57 32 14 58 235 242 249 259 268 239 221 219 232 231 237 233 217 200 208 211 213 209 210 203 204 202 199 197 195 193
184 207 38 344 40 289 286 205 237 244 316 279 207 204 291 252 234 236 228 190 115 127 127 121 111 102 101 95 89 77 64 69 67 59 49 29 26 30 25 17 13 25 32 38 38 32 29 27 28 28 30 28 22 20 24 21 24 28 35 25 23 11 8 357 359 13 21 56 41 4 1 322 246 253 261 265 268 250 227 231 236 231 228 232 213 217 221 219 216 204 206 208 208 212 209 205 189
111 238 222 167 197 226 209 226 236 298 223 264 197 178 216 279 266 267 142 245 134 157 145 129 120 116 108 99 99 91 77 63 55 63 56 40 26 24 19 7 21 26 30 38 40 35 32 31 33 32 32 29 23 22 23 24 21 21 26 23 30 14 4 355 5 6 14 8 10 351 301 293 286 231 243 267 276 261 245 234 237 236 236 237 231 222 223 225 227 221 210 209 210 215 216 211 210
140 123 356 278 233 230 234 197 222 286 244 252 229 202 179 285 279 230 161 223 145 151 126 115 113 108 100 94 86 87 74 46 51 53 45 44 27 22 13 27 24 25 27 35 36 35 29 30 33 39 33 30 26 28 25 23 20 17 23 19 20 20 7 10 4 0 4 9 1 347 344 315 286 245 207 237 247 259 254 244 231 239 242 239 234 235 233 227 227 225 220 215 213 214 217 222 226
99 114 340 336 290 177 128 210 128 119 270 280 280 191 188 199 291 316 73 108 149 158 163 153 141 129 117 103 93 84 72 65 62 62 55 35 25 17 18 25 24 20 23 29 32 30 32 30 35 42 35 29 27 24 28 28 25 19 18 14 14 12 14 12 4 9 7 5 2 359 350 357 341 320 244 209 239 245 239 250 248 245 249 248 245 235 237 234 231 234 230 219 222 222 222 223 226
128 167 246 171 284 43 266 86 318 214 234 264 2 63 198 234 243 305 311 88 106 138 135 134 129 118 107 103 101 84 75 83 76 69 56 39 34 23 20 19 18 22 20 21 27 28 29 31 33 38 32 26 24 22 27 26 27 25 21 19 16 9 6 10 5 15 4 4 360 360 358 354 349 353 338 314 270 234 226 238 251 244 246 242 243 245 245 240 236 232 230 229 221 219 221 224 227
162 185 174 146 318 239 250 247 220 256 279 296 43 23 306 285 279 259 165 68 55 75 94 106 116 117 115 110 104 100 107 89 80 73 66 57 39 34 27 24 23 16 14 19 33 36 30 32 30 32 28 21 18 20 20 23 26 24 20 22 21 16 12 14 13 11 1 359 358 356 351 348 347 338 338 337 323 287 237 228 231 242 240 239 232 236 240 243 238 234 237 239 232 228 224 228 233
198 206 156 177 181 172 250 237 240 231 224 315 259 18 222 120 246 85 109 92 81 74 86 95 97 104 106 111 115 117 109 77 74 74 68 56 50 39 33 31 41 232 32 37 40 36 35 33 29 27 22 15 16 15 13 15 16 17 19 20 23 19 16 16 13 8 4 3 355 354 349 345 350 333 336 327 335 342 302 257 247 251 262 258 252 247 242 241 242 241 240 245 246 234 232 229 234
197 205 66 68 221 151 241 243 285 294 302 297 213 200 247 265 128 93 98 101 92 101 99 101 105 108 106 96 98 104 89 77 66 68 70 70 69 69 39 1 6 30 37 41 43 43 41 38 35 33 28 17 15 15 14 10 7 8 13 17 16 17 14 15 14 9 11 11 3 5 356 352 345 341 337 339 334 337 331 308 289 276 272 271 265 253 248 242 237 236 246 249 253 244 241 237 237
280 71 195 207 40 80 289 309 257 290 287 254 247 267 266 282 245 101 109 96 96 101 113 111 116 108 95 98 98 89 78 77 74 80 94 75 49 57 60 43 30 34 38 40 42 38 39 34 32 26 24 19 18 14 14 9 5 12 9 11 11 11 13 14 12 8 9 5 7 5 1 351 346 345 336 335 333 334 332 328 318 304 293 279 273 267 258 252 244 236 235 242 249 251 247 245 242
78 169 238 1 215 152 199 252 234 233 236 254 232 264 278 310 273 143 130 117 134 120 114 120 107 111 106 112 110 91 89 93 97 98 85 86 80 44 44 43 51 49 45 43 45 41 44 45 33 34 25 22 6 14 16 14 11 11 9 9 8 11 13 8 6 8 2 7 6 9 2 0 355 344 344 338 337 333 328 326 321 309 296 293 284 278 271 262 259 253 242 242 241 242 250 256 248
182 193 346 107 267 324 261 170 256 252 246 264 213 253 256 244 248 134 215 136 137 124 125 123 124 118 121 117 108 106 98 98 107 102 93 139 91 53 33 36 37 41 45 54 49 48 42 39 28 34 29 18 8 6 3 7 25 18 15 8 5 4 5 5 1 6 3 7 4 1 1 355 347 347 349 345 341 335 327 317 313 304 300 291 287 281 275 273 260 259 257 254 258 250 248 251 249
96 92 345 267 88 215 242 217 240 223 265 266 247 240 254 244 328 346 37 132 139 141 146 134 120 121 126 135 119 129 133 125 177 170 186 201 139 102 73 45 37 33 35 36 46 48 46 40 34 27 14 8 10 4 4 359 356 24 18 13 4 8 1 359 352 0 1 2 356 356 352 354 347 342 345 343 340 338 334 331 323 315 307 299 290 279 272 265 264 254 251 252 253 250 253 253 256
300 61 273 232 215 197 145 339 231 225 261 233 282 254 257 290 358 41 105 129 152 157 146 133 128 130 135 137 152 152 162 171 189 196 189 172 151 118 109 116 59 63 36 49 44 33 38 33 26 18 23 357 8 348 358 344 349 337 6 360 354 356 352 349 352 354 4 347 349 349 346 343 337 340 341 341 341 339 336 334 331 328 321 314 307 296 285 270 259 257 253 244 250 248 250 255 253
187 170 204 200 199 271 245 254 235 221 226 253 249 258 238 189 323 91 93 107 120 107 122 127 139 152 144 156 168 168 173 190 179 188 189 173 154 156 158 156 142 108 60 89 85 102 60 67 50 17 22 359 15 346 352 339 345 346 342 321 300 308 319 332 353 341 1 344 344 341 332 339 338 326 335 326 326 324 327 326 327 323 321 316 314 309 301 297 285 278 271 256 252 248 252 253 248